Location: Alpedrete
(40.6606°N, 4.0253°W)
Time: 01:09:06
(UTC+00:00)

Daily predictions for brighter satellites

Satellite Brightness Start Highest point End
(mag) Time Altitude Azimuth Time Altitude Azimuth Time Altitude Azimuth
Lacrosse 5 3.6 00:00:55 10° WNW 00:03:12 22° W 00:03:12 22° W
Cosmos 1655 Rocket 3.8 00:07:30 75° SW 00:07:58 82° W 00:14:15 10° N
COSMOS 2455 3.6 00:11:40 38° E 00:11:40 38° E 00:16:34 10° NE
S3M 3.8 00:06:05 10° N 00:12:15 82° W 00:12:36 78° SW
Cosmos 2263 4.1 00:12:25 83° NW 00:12:25 83° NW 00:17:58 10° NNE
Cosmos 1726 4.0 00:08:54 10° N 00:10:54 29° NNE 00:10:54 29° NNE
Meteor 2-8 Rocket 4.3 00:07:46 10° N 00:13:55 81° W 00:14:13 78° SW
Cosmos 1953 3.7 00:16:55 10° N 00:19:26 37° N 00:19:26 37° N
Cosmos 1340 Rocket 4.1 00:18:27 10° N 00:21:08 39° NNE 00:21:08 39° NNE
Cosmos 1992 Rocket 4.1 00:25:15 72° NNW 00:25:15 72° NNW 00:30:07 10° NNE
Cosmos 1833 4.2 00:23:49 10° NNW 00:29:28 70° ENE 00:29:45 68° E
USA 215 3.7 00:33:06 43° WSW 00:33:06 43° WSW 00:38:33 10° WNW
Cosmos 1656 Rocket 3.6 00:33:51 80° WNW 00:33:52 80° WNW 00:39:30 10° NNE
In-Cosmos 22 4.1 00:35:37 71° WNW 00:35:37 71° WNW 00:40:42 10° N
FALCON 9 R/B 3.3 00:38:25 46° SE 00:38:25 46° SE 00:50:50 10° E
Cosmos 1606 Rocket 4.4 00:35:26 10° N 00:38:48 46° NE 00:38:48 46° NE
EO 1 Delta rocket 4.1 00:38:24 10° N 00:44:35 76° WNW 00:44:41 76° W
Meteor 1-16 Rocket 4.1 00:40:01 10° NNW 00:45:20 71° WNW 00:45:20 71° WNW
CZ-4 R/B 4.0 00:41:07 10° NNE 00:45:23 69° N 00:45:23 69° N
SL-4 R/B 3.1 00:49:12 49° ENE 00:49:12 49° ENE 00:52:43 10° NE
Cosmos 1674 4.3 00:53:21 33° N 00:53:21 33° N 00:55:34 10° N
NOSS 3-2 (C) 4.0 00:44:14 10° NW 00:51:59 80° WSW 00:54:29 51° SSE
PSLV R/B 4.1 00:50:01 10° N 00:53:53 61° NNW 00:53:53 61° NNW
ATLAS CENTAUR R/B 2.4 00:56:56 46° NE 00:56:56 46° NE 00:59:57 10° NE
NOSS 3-4 (A) 3.5 00:57:31 58° W 00:58:26 67° NW 01:04:42 10° NNE
NOSS 3-4 (C) 3.5 00:57:37 59° W 00:58:32 68° NW 01:04:48 10° NNE
SL-19 R/B 4.4 00:54:24 10° NNE 00:59:47 58° ESE 01:00:03 57° ESE
SL-16 R/B 4.0 00:56:01 16° ESE 00:59:50 30° ENE 01:05:06 10° N
ATLAS 3B R/B 3.1 01:01:01 10° NNW 01:07:45 59° NE 01:12:43 20° SE
Cosmos 1244 Rocket 4.3 01:07:54 69° S 01:08:44 86° E 01:14:59 10° N
BREEZE-M DEB (TANK) 4.4 01:12:38 14° NE 01:12:38 14° NE 01:13:04 10° NE
CENTAUR R/B 3.1 01:03:39 10° NW 01:11:52 72° WSW 01:14:47 46° S
Meteor 2-21 Rocket 4.4 01:11:40 62° SSE 01:12:36 72° E 01:18:45 10° NNE
Cosmos 1892 Rocket 3.9 01:14:51 60° NNW 01:14:51 60° NNW 01:18:33 10° N
Cosmos 1867 3.4 01:10:49 10° NNW 01:16:19 85° ENE 01:16:44 76° SE
RESURS DK-1 3.2 01:19:17 47° ENE 01:19:17 47° ENE 01:22:25 10° NNE
Meteor 1-24 Rocket 3.4 01:22:03 82° SSW 01:22:17 87° W 01:27:41 10° N
Cosmos 2369 Rocket 4.3 01:20:44 14° W 01:23:19 18° NW 01:27:10 10° N
Cosmos 2227 Rocket 4.5 01:20:03 10° N 01:24:16 21° NE 01:28:29 10° E
Meteor 2-14 Rocket 4.3 01:24:00 65° SW 01:24:51 77° W 01:31:00 10° N
ATLAS 2AS CENTAUR R/B 3.6 01:23:17 29° WSW 01:27:10 50° NW 01:34:53 10° NNE
Cosmos 1726 Rocket 4.4 01:23:36 10° NNW 01:26:45 40° NW 01:26:45 40° NW
CZ-2D R/B 2.8 01:24:26 10° NNE 01:29:25 43° E 01:30:15 40° ESE
Helios 1B rocket 4.0 01:26:10 10° N 01:29:11 27° NW 01:29:11 27° NW
CZ-4C R/B 4.2 01:30:46 45° E 01:31:05 46° ENE 01:35:12 10° N
ADEOS II 4.2 01:28:27 10° NE 01:31:51 17° E 01:34:07 13° ESE
DELTA 2 DEB (DPAF) 4.1 01:34:11 77° ENE 01:34:11 77° ENE 01:38:36 10° N
Meteor 2-5 Rocket 4.0 01:35:17 48° W 01:35:46 49° WNW 01:41:10 10° N
Resurs 1-4 Rocket 2.4 01:34:02 10° NNE 01:39:15 55° E 01:40:11 48° SE
NPP 4.0 01:41:23 10° NNE 01:46:42 55° E 01:47:57 44° SE
GEOS 3 Rocket 3.7 01:48:43 56° WSW 01:48:43 56° WSW 01:53:39 10° NW
Cosmos 1656 4.5 01:48:20 35° SE 01:49:45 42° ESE 01:55:02 10° NE
Cosmos 2058 Rocket 3.8 01:47:29 10° NNW 01:51:01 41° WNW 01:51:01 41° WNW
CZ-4C R/B 3.6 01:50:43 20° SE 01:51:44 21° ESE 01:55:45 10° ENE
Cosmos 2084 3.4 01:52:18 84° ESE 01:52:18 84° ESE 01:56:44 10° NE
SL-14 R/B 4.5 01:54:05 32° NW 01:54:05 32° NW 01:56:54 10° N
SL-08 ROCKET BODY 4.2 01:52:04 55° SSW 01:53:26 86° W 01:59:20 10° N
SJ 16-02 3.2 01:51:48 10° N 01:55:37 28° ENE 01:59:17 11° ESE
COSMOS 2455 3.9 01:54:47 27° W 01:56:58 36° NW 02:02:29 10° NNE
Cosmos 921 Rocket 3.4 02:00:21 49° WNW 02:00:21 49° WNW 02:04:26 10° N
Cosmos 1300 3.9 01:57:28 10° NNW 02:00:01 33° NW 02:00:01 33° NW
Meteor 2-10 Rocket 4.3 01:57:57 10° N 02:03:05 47° ENE 02:06:01 23° SE
Cosmos 1709 Rocket 4.1 02:01:48 37° SSE 02:04:15 65° E 02:10:18 10° NNE
Cosmos 1386 Rocket 4.4 02:02:40 49° SSW 02:04:19 74° W 02:10:27 10° N
Cosmos 1626 Rocket 3.6 02:06:42 59° W 02:06:44 59° W 02:11:01 10° N
Cosmos 1626 4.0 02:09:03 20° WNW 02:09:03 20° WNW 02:11:15 10° NNW
SL-19 R/B 4.4 02:07:57 38° S 02:10:28 82° WSW 02:16:55 10° NNW
STARLINK-1320 4.0 02:14:52 42° ENE 02:14:52 42° ENE 02:17:04 10° NE
STARLINK-1322 4.0 02:15:11 42° ENE 02:15:11 42° ENE 02:17:24 10° NE
STARLINK-1324 3.9 02:15:32 43° ENE 02:15:32 43° ENE 02:17:46 10° NE
STARLINK-1294 3.9 02:15:47 44° ENE 02:15:47 44° ENE 02:18:04 10° NE
STARLINK-1261 3.9 02:16:10 44° ENE 02:16:10 44° ENE 02:18:26 10° NE
STARLINK-1325 3.9 02:16:30 44° ENE 02:16:30 44° ENE 02:18:47 10° NE
STARLINK-1333 3.9 02:16:48 45° ENE 02:16:48 45° ENE 02:19:05 10° NE
STARLINK-1334 3.8 02:17:07 45° ENE 02:17:07 45° ENE 02:19:26 10° NE
STARLINK-1326 3.8 02:17:28 46° ENE 02:17:28 46° ENE 02:19:47 10° NE
STARLINK-1323 3.8 02:17:47 46° ENE 02:17:47 46° ENE 02:20:07 10° NE
STARLINK-1338 3.5 02:17:39 60° E 02:17:39 60° E 02:20:39 10° NE
Cosmos 1980 Rocket 4.2 02:13:41 11° SE 02:17:14 20° E 02:21:08 10° NE
STARLINK-1349 3.8 02:18:06 47° ENE 02:18:06 47° ENE 02:20:27 10° NE
Cosmos 2219 3.3 02:12:00 10° NNW 02:17:41 74° ENE 02:22:14 16° SSE
STARLINK-1336 3.8 02:18:28 48° ENE 02:18:28 48° ENE 02:20:48 10° NE
STARLINK-1331 3.7 02:18:45 48° NE 02:18:45 48° NE 02:21:07 10° NE
STARLINK-1344 3.7 02:19:05 49° NE 02:19:05 49° NE 02:21:27 10° NE
STARLINK-1343 3.7 02:19:25 49° NE 02:19:25 49° NE 02:21:48 10° NE
STARLINK-1346 3.6 02:19:43 51° NE 02:19:43 51° NE 02:22:12 10° NE
STARLINK-1328 3.7 02:20:05 50° NE 02:20:05 50° NE 02:22:30 10° NE
STARLINK-1354 3.6 02:20:22 51° NE 02:20:22 51° NE 02:22:48 10° NE
STARLINK-1347 3.6 02:20:44 51° NE 02:20:44 51° NE 02:23:10 10° NE
STARLINK-1357 3.6 02:21:02 52° NE 02:21:02 52° NE 02:23:29 10° NE
STARLINK-1335 3.6 02:21:22 52° NE 02:21:22 52° NE 02:23:50 10° NE
STARLINK-1327 3.6 02:21:41 53° NE 02:21:41 53° NE 02:24:09 10° NE
STARLINK-1371 3.3 02:21:31 71° ENE 02:21:31 71° ENE 02:24:42 10° NE
STARLINK-1340 3.5 02:22:01 53° NE 02:22:01 53° NE 02:24:31 10° NE
STARLINK-1356 3.5 02:22:21 54° NE 02:22:21 54° NE 02:24:51 10° NE
Cosmos 192 4.3 02:20:35 53° SW 02:21:45 79° WNW 02:26:44 10° NNE
STARLINK-1345 3.5 02:22:41 55° NE 02:22:41 55° NE 02:25:12 10° NE
STARLINK-1355 3.5 02:22:59 55° NE 02:22:59 55° NE 02:25:32 10° NE
STARLINK-1321 3.5 02:23:18 56° NE 02:23:18 56° NE 02:25:51 10° NE
UNK 3.8 02:22:20 53° SW 02:22:54 58° W 02:27:26 10° NNW
MOZ.5/SAFIR/RUBIN 5/SL-8 4.2 02:22:55 42° W 02:22:58 42° W 02:27:22 10° NNW
STARLINK-1358 3.5 02:23:39 56° NE 02:23:39 56° NE 02:26:13 10° NE
STARLINK-1341 3.2 02:23:29 76° ENE 02:23:29 76° ENE 02:26:45 10° NE
STARLINK-1332 3.4 02:23:57 57° NE 02:23:57 57° NE 02:26:32 10° NE
STARLINK-1348 3.4 02:24:18 57° NE 02:24:18 57° NE 02:26:53 10° NE
STARLINK-1330 3.4 02:24:37 58° NE 02:24:37 58° NE 02:27:13 10° NE
STARLINK-1363 3.4 02:24:56 58° NE 02:24:56 58° NE 02:27:32 10° NE
STARLINK-1337 3.4 02:25:15 59° NE 02:25:15 59° NE 02:27:53 10° NE
STARLINK-1342 3.4 02:25:35 59° NE 02:25:35 59° NE 02:28:14 10° NE
STARLINK-1374 3.1 02:25:26 81° ENE 02:25:26 81° ENE 02:28:48 10° NE
STARLINK-1364 3.3 02:25:55 60° NNE 02:25:55 60° NNE 02:28:34 10° NE
STARLINK-1376 3.3 02:26:15 60° NNE 02:26:15 60° NNE 02:28:55 10° NE
STARLINK-1360 3.3 02:26:30 61° NNE 02:26:30 61° NNE 02:29:11 10° NE
STARLINK-1361 3.3 02:26:56 61° NNE 02:26:56 61° NNE 02:29:37 10° NE
STARLINK-1367 3.3 02:27:10 63° NNE 02:27:10 63° NNE 02:29:55 10° NE
STARLINK-1366 3.3 02:27:33 62° NNE 02:27:33 62° NNE 02:30:15 10° NE
STARLINK-1339 3.1 02:27:27 86° NNE 02:27:27 86° NNE 02:30:54 10° NE
SL-4 R/B 3.9 02:24:45 15° WNW 02:28:03 31° NNW 02:32:15 10° NE
Nadezhda 1 Rocket 4.3 02:22:36 10° NNW 02:28:29 48° W 02:30:28 36° SW
STARLINK-1377 3.0 02:29:27 85° NW 02:29:28 85° NW 02:32:59 10° NE
AQUA 3.8 02:26:06 10° N 02:30:51 71° WNW 02:32:12 46° SW
Cosmos 1812 Rocket 3.6 02:26:26 10° NNW 02:30:51 61° W 02:31:37 52° SW
STARLINK-1353 3.0 02:31:17 81° WNW 02:31:20 82° NW 02:34:49 10° NE
STARLINK-1375 3.0 02:33:04 76° WNW 02:33:11 79° NW 02:36:41 10° NE
Cosmos 2297 Rocket 2.3 02:27:33 10° NNW 02:33:14 79° ENE 02:38:52 10° SSE
CZ-4B R/B 3.6 02:28:17 10° N 02:33:24 65° WNW 02:35:13 40° SW
ATLAS CENTAUR R/B 3.8 02:33:06 12° WNW 02:35:01 15° NW 02:37:25 10° N
STARLINK-1350 3.1 02:35:22 70° WNW 02:35:36 74° NW 02:39:04 10° NE
FALCON 9 DEB 4.4 02:35:24 29° WNW 02:36:11 33° NNW 02:39:22 10° NE
STARLINK-1352 3.2 02:37:40 63° W 02:38:01 71° NW 02:41:32 10° NE
Cosmos 990 Rocket 4.2 02:33:54 10° NNW 02:39:11 71° ENE 02:44:24 10° SSE
Cosmos 1602 Rocket 4.4 02:39:06 32° W 02:39:37 33° WNW 02:43:33 10° NNW
Cosmos 1825 Rocket 3.4 02:38:21 44° S 02:39:43 88° E 02:44:03 10° N
STARLINK-1368 3.2 02:39:45 59° W 02:40:12 67° NW 02:43:43 10° NE
CBERS-1 3.9 02:35:08 10° NNE 02:40:17 84° WNW 02:42:29 35° SSW
STARLINK-1369 3.3 02:41:37 55° W 02:42:06 64° NW 02:45:35 10° NE
SL-16 R/B 2.9 02:41:06 33° SW 02:43:13 43° W 02:49:04 10° NNW
Cosmos 1455 2.0 02:39:48 10° NNW 02:43:33 73° W 02:44:16 54° SSW
STARLINK-1372 3.4 02:43:58 50° W 02:44:35 61° NW 02:48:05 10° NE
ATLAS CENTAUR R/B 2.5 02:43:02 10° NW 02:46:20 75° NE 02:54:20 10° SE
STARLINK-1378 3.5 02:46:05 46° W 02:46:49 59° NW 02:50:19 10° NE
USA 234 4.3 02:41:18 10° ENE 02:47:04 32° SE 02:51:06 17° S
STARLINK-1329 3.5 02:46:35 45° W 02:47:20 58° NW 02:50:50 10° NE
Cosmos 841 Rocket 4.1 02:44:27 23° S 02:47:33 51° ESE 02:52:37 10° NNE
STARLINK-1365 3.6 02:47:17 43° W 02:48:04 54° NW 02:51:33 10° NE
STARLINK-1379 3.6 02:48:13 43° W 02:49:02 56° NW 02:52:32 10° NE
STARLINK-1362 3.6 02:48:47 42° W 02:49:38 55° NW 02:53:07 10° NE
STARLINK-1373 3.7 02:50:59 39° W 02:51:56 53° NW 02:55:25 10° NE
GP-B 3.2 02:47:40 10° N 02:52:02 59° W 02:53:37 36° SSW
IRS-1D 3.7 02:47:53 10° N 02:53:11 65° WNW 02:55:45 30° SW
STARLINK-1390 3.7 02:52:59 37° W 02:54:00 51° NW 02:57:27 10° NE
NOSS 7 (E) 4.4 02:53:04 46° SSW 02:54:02 82° SE 02:57:16 10° NE
Cosmos-2242 2.8 02:50:53 10° N 02:55:09 79° W 02:57:20 28° S
Cosmos 1400 Rocket 4.1 02:52:17 10° N 02:56:13 42° ENE 03:00:08 10° SSE
Cosmos 2184 Rocket 4.3 02:51:54 15° S 02:57:05 64° E 03:03:11 10° NNE
ATLAS 3B R/B 3.6 02:52:22 10° NW 02:58:03 28° WSW 02:59:50 25° SW
SL-08 R/B 3.4 02:54:12 11° SSE 02:58:43 77° ENE 03:03:23 10° N
Alouette 2 Rocket 4.1 02:56:55 10° NNW 03:02:45 53° W 03:04:50 28° SSW
Cosmos 1703 3.6 03:02:09 35° SW 03:03:21 49° W 03:07:12 10° N
Cosmos 1763 Rocket 3.7 03:03:46 28° SW 03:06:18 56° WNW 03:11:20 10° N
STARLINK-1254 4.4 03:03:29 10° NW 03:07:33 53° NE 03:11:36 10° ESE
Cosmos 1697 Rocket 2.7 03:04:56 25° SSW 03:08:19 81° WNW 03:14:01 10° NNE
Cosmos 2227 Rocket 2.2 03:03:11 10° NNW 03:08:47 62° WSW 03:14:21 10° S
IRS-P3 4.2 03:03:30 10° N 03:08:47 67° WNW 03:12:05 23° SSW
CZ-2D R/B 3.5 03:05:05 10° NNW 03:09:12 24° WNW 03:11:34 18° W
Cosmos 2181 Rocket 4.1 03:03:37 10° NNW 03:09:56 62° W 03:15:15 15° S
STARLINK-1228 3.4 03:08:08 10° WNW 03:11:17 39° SW 03:14:25 10° SSE
ADEOS II 2.3 03:06:45 10° N 03:11:54 57° WNW 03:15:04 23° SW
STARLINK-1231 4.3 03:08:28 10° NW 03:12:34 58° NE 03:16:39 10° ESE
STARLINK-1212 2.8 03:10:01 10° WNW 03:13:05 55° SW 03:16:06 10° SE
STARLINK-1105 2.8 03:10:30 10° WNW 03:13:32 54° SW 03:16:33 10° SE
STARLINK-1247 2.9 03:11:25 10° WNW 03:14:29 53° SW 03:17:31 10° SE
STARLINK-1227 2.9 03:11:53 10° WNW 03:14:54 52° SW 03:17:55 10° SE
STARLINK-1226 2.9 03:12:44 10° WNW 03:15:46 51° SW 03:18:48 10° SE
STARLINK-1215 2.9 03:13:41 10° WNW 03:16:43 50° SW 03:19:44 10° SSE
STARLINK-1232 4.1 03:13:26 10° NW 03:17:33 63° NE 03:21:39 10° ESE
STARLINK-1217 3.0 03:15:28 10° WNW 03:18:29 48° SW 03:21:29 10° SSE
CZ-2C R/B 3.8 03:15:03 10° NNE 03:18:33 40° E 03:22:04 10° S
Resurs 1-4 Rocket 3.8 03:14:54 10° NNW 03:18:37 20° WNW 03:21:16 14° W
STARLINK-1229 3.0 03:16:23 10° WNW 03:19:24 47° SW 03:22:24 10° SSE
H-2A R/B 2.5 03:15:23 10° SSE 03:19:37 64° ENE 03:23:58 10° N
STARLINK-1270 3.0 03:17:15 10° WNW 03:20:16 46° SW 03:23:15 10° SSE
BREEZE-M R/B 4.3 03:18:40 10° WNW 03:21:51 22° NNW 03:24:07 10° NE
STARLINK-1189 3.1 03:19:06 10° WNW 03:22:06 43° SW 03:25:04 10° SSE
STARLINK-1208 3.9 03:18:22 10° NW 03:22:31 69° NE 03:26:38 10° ESE
STARLINK-1188 3.1 03:20:00 10° WNW 03:22:59 42° SW 03:25:57 10° SSE
ARIANE 5 R/B 2.5 03:18:25 10° N 03:23:28 72° WNW 03:27:15 18° SSW
STARLINK-1235 3.6 03:20:48 10° WNW 03:23:58 30° SSW 03:26:22 10° SSE
STARLINK-1187 3.4 03:21:10 10° WNW 03:24:02 35° SW 03:26:54 10° SSE
STARLINK-1191 3.2 03:22:30 10° WNW 03:25:25 40° SW 03:28:20 10° SSE
STARLINK-1221 3.2 03:23:21 10° WNW 03:26:17 39° SW 03:29:12 10° SSE
STARLINK-1222 3.3 03:24:16 10° WNW 03:27:11 38° SW 03:30:05 10° SSE
STARLINK-1271 3.8 03:23:22 10° NW 03:27:31 75° NE 03:31:39 10° SE
BREEZE-M DEB (TANK) 1.8 03:25:43 10° NW 03:27:50 54° NNE 03:30:14 10° ESE
STARLINK-1214 3.3 03:25:11 10° WNW 03:28:05 37° SW 03:30:58 10° SSE
Cosmos 2154 Rocket 4.2 03:22:47 10° S 03:29:03 73° E 03:35:18 10° N
Spot 4 Rocket 4.0 03:24:13 10° NNE 03:29:23 87° WNW 03:34:03 13° SSW
Lacrosse 4 Rocket 2.0 03:25:54 10° NNW 03:30:12 60° ENE 03:34:20 10° SE
Cosmos 2058 4.5 03:26:44 10° SSE 03:30:31 35° E 03:34:21 10° NNE
Meteor 1-27 4.2 03:26:11 10° N 03:31:47 88° E 03:37:20 10° S
Cosmos 1898 Rocket 4.0 03:27:11 10° NW 03:32:07 40° WSW 03:37:02 10° S
STARLINK-1154 3.7 03:28:20 10° NW 03:32:30 82° NE 03:36:39 10° SE
USA 129 2.4 03:31:24 10° NNE 03:32:58 27° E 03:33:05 27° ESE
SJ 16-02 2.4 03:30:26 10° NW 03:34:06 26° W 03:36:11 18° SW
Cosmos 1953 Rocket 4.4 03:31:49 20° SW 03:34:19 34° WNW 03:38:25 10° N
STARLINK 1040 3.7 03:35:58 19° S 03:37:13 31° SE 03:39:34 10° ENE
Cosmos 1570 Rocket 4.4 03:33:27 18° SW 03:37:15 49° WNW 03:42:25 10° N
IDEFIX/ARIANE 42P 2.7 03:32:06 10° NNE 03:37:24 78° ESE 03:42:39 10° S
STARLINK-1197 3.6 03:33:19 10° NW 03:37:28 89° N 03:41:37 10° SE
CZ-4C R/B 2.6 03:35:54 17° WSW 03:39:37 49° NW 03:45:18 10° NNE
Cosmos 2208 Rocket 4.3 03:36:15 17° SW 03:40:13 55° WNW 03:45:26 10° N
Meteor 2-17 Rocket 4.4 03:35:50 10° S 03:41:58 79° W 03:48:09 10° N
Cosmos 2369 4.2 03:37:51 16° SW 03:42:05 46° WNW 03:47:31 10° NNE
Cosmos 1937 Rocket 3.8 03:37:20 10° NNW 03:42:19 45° WSW 03:47:18 10° S
STARLINK-1198 3.5 03:38:16 10° NW 03:42:26 83° SW 03:46:34 10° SE
Cosmos 2285 Rocket 4.1 03:36:15 10° NNW 03:42:27 56° WSW 03:48:35 10° S
Cosmos 2360 4.4 03:40:26 15° SW 03:45:03 58° WNW 03:50:40 10° NNE
Cosmos 1842 Rocket 3.6 03:40:37 10° N 03:45:08 88° W 03:49:35 10° S
STARLINK-1199 3.5 03:43:17 10° NW 03:47:25 76° SW 03:51:33 10° SE
Iridium 2 3.8 03:44:10 10° NNW 03:47:51 56° W 03:51:32 10° S
Uosat 12 SS-18 rocket 4.5 03:45:06 10° NNW 03:49:24 68° NE 03:54:01 10° SE
IRIDIUM 104 4.3 03:45:20 10° S 03:50:32 79° W 03:55:47 10° N
STARLINK-1210 3.5 03:48:15 10° NW 03:52:23 69° SW 03:56:30 10° SE
CZ-4B R/B 3.4 03:50:35 10° SE 03:53:15 29° ENE 03:55:58 10° N
STARLINK-43 3.4 03:53:30 14° SW 03:56:37 74° SE 04:00:17 10° NE
ERS-2 3.0 03:53:47 10° SSW 03:57:00 29° W 04:00:14 10° NW
STARLINK-1219 3.6 03:53:15 10° WNW 03:57:21 62° SW 04:01:26 10° SE
Cosmos 1825 4.5 03:56:30 10° SE 03:59:35 25° E 04:02:42 10° NE
IRIDIUM 114 4.4 03:54:32 10° SSW 03:59:43 65° W 04:04:55 10° N
Cosmos 1980 Rocket 2.4 03:55:27 11° SW 04:00:43 56° WNW 04:06:16 10° NNE
CZ-2C R/B 3.6 03:56:38 10° NNE 04:01:34 45° E 04:06:31 10° S
Cosmos 1125 Rocket 4.4 03:56:48 10° N 04:01:54 53° ENE 04:06:58 10° SE
STARLINK-1211 3.7 03:58:14 10° WNW 04:02:18 56° SW 04:06:21 10° SE
STARLINK-1245 3.8 04:03:15 10° WNW 04:07:16 51° SW 04:11:17 10° SSE
Nadezhda 3 Rocket 4.1 04:01:06 10° NNW 04:07:18 66° W 04:13:32 10° S
STARLINK-55 4.0 04:08:17 10° SSW 04:11:16 36° SE 04:14:15 10° ENE
STARLINK-1233 3.9 04:08:15 10° WNW 04:12:13 46° SW 04:16:11 10° SSE
Cosmos 1076 Rocket 3.5 04:08:35 10° SSW 04:12:55 77° W 04:17:18 10° N
Cosmos 2341 Rocket 4.1 04:08:48 10° S 04:15:11 88° W 04:21:36 10° N
Landsat 5 4.1 04:11:31 10° S 04:15:44 41° W 04:20:02 10° NNW
Cosmos 2297 Rocket 3.9 04:13:54 10° WNW 04:16:29 13° W 04:19:05 10° SW
STARLINK-1204 4.0 04:13:17 10° WNW 04:17:11 41° SW 04:21:05 10° SSE
